Date String (YYYY-MM-DD hh:mm:ss) UTC,Instrument flags,Ambient pressure (hPa),Sample flow (lpm),Bypass flow (lpm),Sample temperature (°C),Ambient temperature (°C),ASC tube jacket temperature (°C),LED temperature (°C),Box temperature (°C),Sample RH (%),Span deviation,Mass concentration (μg/m³),Mass concentration (μg/m³),Mass concentration (μg/m³)
DateTimeUTC,F1_M11,P_M11,Q1_M11,Q2_M11,T1_M11,T2_M11,T3_M11,T4_M11,T5_M11,U1_M11,ZSPAN_M11,X0_M11,X2_M11,X1_M11
2022-09-03 19:00:00,,0835.0,5.00,0.00,29.5,28.3,00.0,38.2,31.4,26.2,0000.0,0020.47,0009.03,0007.63
2022-09-03 19:01:00,,0835.0,4.99,0.00,29.6,28.4,00.0,38.2,31.5,26.2,0000.0,0021.90,0009.06,0007.67
2022-09-03 19:02:00,,0834.9,4.99,0.00,29.6,27.7,00.0,38.2,31.5,26.2,0000.0,0022.98,0009.11,0007.72
2022-09-03 19:03:00,,0834.9,5.02,0.00,29.5,26.6,00.0,38.2,31.3,26.4,0000.0,0023.20,0009.14,0007.76
2022-09-03 19:04:00,,0835.0,5.00,0.00,29.5,26.4,00.0,38.1,31.3,26.1,0000.0,0024.08,0009.22,0007.81
2022-09-03 19:05:00,,0834.9,4.99,0.00,29.4,26.7,00.0,38.1,31.2,26.2,0000.0,0025.49,0009.23,0007.85
2022-09-03 19:06:00,,0834.8,5.00,0.00,29.4,27.0,00.0,38.1,31.1,26.2,0000.0,0025.38,0009.26,0007.86
2022-09-03 19:07:00,,0834.9,5.00,0.00,29.4,27.3,00.0,38.1,31.2,26.4,0000.0,0024.73,0009.29,0007.88
2022-09-03 19:08:00,,0834.9,5.01,0.00,29.4,27.6,00.0,38.1,31.2,26.7,0000.0,0024.22,0009.40,0007.91
2022-09-03 19:09:00,,0834.9,5.01,0.00,29.4,27.9,00.0,38.1,31.3,26.8,0000.0,0025.03,0009.49,0007.95
2022-09-03 19:10:00,,0834.9,4.98,0.00,29.4,28.1,00.0,38.1,31.4,26.7,0000.0,0024.76,0009.59,0008.00
2022-09-03 19:11:00,,0834.8,5.00,0.00,29.5,28.3,00.0,38.1,31.4,26.8,0000.0,0023.93,0009.65,0008.02
2022-09-03 19:12:00,,0834.8,5.01,0.00,29.5,28.4,00.0,38.1,31.5,26.8,0000.0,0022.48,0009.71,0008.05
2022-09-03 19:13:00,,0834.8,4.99,0.00,29.6,28.5,00.0,38.2,31.5,26.5,0000.0,0021.44,0009.71,0008.07
2022-09-03 19:14:00,,0834.8,4.99,0.00,29.6,27.6,00.0,38.2,31.4,26.3,0000.0,0021.30,0009.70,0008.08
2022-09-03 19:15:00,,0834.7,5.00,0.00,29.5,26.5,00.0,38.2,31.3,26.7,0000.0,0020.48,0009.65,0008.08
2022-09-03 19:16:00,,0834.7,5.01,0.00,29.5,26.5,00.0,38.1,31.3,26.8,0000.0,0018.40,0009.71,0008.10
2022-09-03 19:17:00,,0834.7,4.99,0.00,29.4,26.8,00.0,38.1,31.1,26.8,0000.0,0018.65,0009.73,0008.14
2022-09-03 19:18:00,,0834.7,5.01,0.00,29.4,27.1,00.0,38.1,31.1,27.0,0000.0,0018.58,0009.71,0008.17
2022-09-03 19:19:00,,0834.7,5.01,0.00,29.4,27.4,00.0,38.1,31.2,26.9,0000.0,0018.65,0009.65,0008.20
2022-09-03 19:20:00,,0834.7,5.00,0.00,29.4,27.7,00.0,38.1,31.3,26.6,0000.0,0019.71,0009.65,0008.18
2022-09-03 19:21:00,,0834.7,4.99,0.00,29.4,28.0,00.0,38.1,31.3,26.5,0000.0,0019.79,0009.59,0008.14
2022-09-03 19:22:00,,0834.7,5.01,0.00,29.5,28.2,00.0,38.1,31.4,26.5,0000.9,0019.38,0009.49,0008.10
2022-09-03 19:23:00,,0834.7,5.01,0.00,29.5,28.4,00.0,38.1,31.4,26.5,0001.1,0019.58,0009.38,0008.05
2022-09-03 19:24:00,,0834.7,4.99,0.00,29.5,28.5,00.0,38.2,31.5,26.2,0000.8,0019.91,0009.40,0008.01
2022-09-03 19:25:00,,0834.7,5.00,0.00,29.6,27.7,00.0,38.2,31.5,26.2,0000.9,0019.96,0009.40,0007.98
2022-09-03 19:26:00,,0834.7,5.00,0.00,29.5,26.7,00.0,38.1,31.3,26.3,0000.4,0020.46,0009.35,0007.95
2022-09-03 19:27:00,,0834.7,5.00,0.00,29.5,26.5,00.0,38.1,31.3,26.3,0000.0,0020.32,0009.24,0007.88
2022-09-03 19:28:00,,0834.7,5.00,0.00,29.4,26.7,00.0,38.1,31.1,26.4,0000.0,0019.85,0009.14,0007.81
2022-09-03 19:29:00,,0834.7,4.99,0.00,29.4,27.0,00.0,38.1,31.1,26.5,0000.0,0019.82,0009.08,0007.75
2022-09-03 19:30:00,,0834.7,5.01,0.00,29.4,27.3,00.0,38.1,31.2,26.5,0000.0,0020.43,0009.00,0007.67
2022-09-03 19:31:00,,0834.6,5.00,0.00,29.4,27.6,00.0,38.1,31.2,26.5,0000.0,0018.89,0008.94,0007.62
2022-09-03 19:32:00,,0834.6,5.01,0.00,29.4,27.9,00.0,38.1,31.3,26.5,0000.0,0018.99,0008.91,0007.57
2022-09-03 19:33:00,,0834.6,4.99,0.00,29.5,28.1,00.0,38.1,31.4,26.5,0000.0,0019.49,0008.92,0007.55
2022-09-03 19:34:00,,0834.6,5.01,0.00,29.5,28.3,00.0,38.1,31.4,26.8,0000.0,0018.91,0008.86,0007.52
2022-09-03 19:35:00,,0834.6,5.00,0.00,29.5,28.5,00.0,38.1,31.5,26.3,0000.0,0019.31,0008.78,0007.49
2022-09-03 19:36:00,,0834.6,4.98,0.00,29.6,27.9,00.0,38.2,31.5,26.1,0000.0,0019.74,0008.78,0007.46
2022-09-03 19:37:00,,0834.5,5.00,0.00,29.5,26.8,00.0,38.1,31.3,26.3,0000.0,0019.33,0008.82,0007.43
2022-09-03 19:38:00,,0834.5,5.00,0.00,29.5,26.4,00.0,38.1,31.3,26.4,0000.0,0019.77,0008.83,0007.43
2022-09-03 19:39:00,,0834.5,5.00,0.00,29.4,26.7,00.0,38.1,31.2,26.4,0000.0,0019.89,0008.82,0007.43
2022-09-03 19:40:00,,0834.5,5.00,0.00,29.4,27.0,00.0,38.0,31.1,26.5,0000.0,0019.86,0008.83,0007.44
2022-09-03 19:41:00,,0834.4,5.00,0.00,29.4,27.3,00.0,38.0,31.1,26.9,0000.0,0019.98,0008.85,0007.45
2022-09-03 19:42:00,,0834.4,5.01,0.00,29.4,27.6,00.0,38.0,31.2,27.0,0000.0,0019.65,0008.91,0007.48
2022-09-03 19:43:00,,0834.4,5.01,0.00,29.4,27.8,00.0,38.1,31.3,27.0,0000.0,0020.22,0008.94,0007.49
2022-09-03 19:44:00,,0834.4,4.98,0.00,29.4,28.1,00.0,38.1,31.4,27.0,0000.0,0019.78,0008.94,0007.49
2022-09-03 19:45:00,,0834.4,5.00,0.00,29.5,28.3,00.0,38.1,31.4,26.9,0000.0,0020.47,0009.01,0007.50
2022-09-03 19:46:00,,0834.4,5.00,0.00,29.5,28.5,00.0,38.1,31.5,26.9,0000.0,0020.21,0009.09,0007.51
2022-09-03 19:47:00,,0834.4,4.99,0.00,29.6,28.2,00.0,38.2,31.5,26.8,0000.0,0019.80,0009.07,0007.52
2022-09-03 19:48:00,,0834.3,5.00,0.00,29.5,27.0,00.0,38.1,31.4,27.0,0000.0,0020.38,0009.09,0007.53
2022-09-03 19:49:00,,0834.3,5.00,0.00,29.5,26.5,00.0,38.1,31.3,26.7,0000.0,0020.78,0009.13,0007.53
2022-09-03 19:50:00,,0834.3,5.01,0.00,29.5,26.7,00.0,38.1,31.2,26.5,0000.0,0021.11,0009.16,0007.53
2022-09-03 19:51:00,,0834.3,4.99,0.00,29.4,26.9,00.0,38.0,31.1,26.8,0000.0,0021.13,0009.24,0007.54
2022-09-03 19:52:00,,0834.3,5.01,0.00,29.4,27.2,00.0,38.0,31.1,26.7,0000.8,0020.27,0009.35,0007.58
2022-09-03 19:53:00,,0834.3,5.01,0.00,29.4,27.5,00.0,38.0,31.2,26.8,0002.0,0020.61,0009.31,0007.60
2022-09-03 19:54:00,,0834.3,5.00,0.00,29.4,27.8,00.0,38.1,31.3,26.9,0002.1,0021.09,0009.33,0007.62
2022-09-03 19:55:00,,0834.3,5.00,0.00,29.4,28.1,00.0,38.1,31.4,27.3,0002.1,0022.03,0009.39,0007.66
2022-09-03 19:56:00,,0834.3,4.98,0.00,29.5,28.3,00.0,38.1,31.4,27.5,0000.2,0021.60,0009.38,0007.71
2022-09-03 19:57:00,,0834.3,5.01,0.00,29.5,28.4,00.0,38.1,31.5,27.4,0000.0,0022.38,0009.38,0007.77
2022-09-03 19:58:00,,0834.3,5.00,0.00,29.6,27.7,00.0,38.1,31.5,26.8,0000.0,0023.36,0009.49,0007.82
2022-09-03 19:59:00,,0834.3,5.00,0.00,29.5,26.7,00.0,38.1,31.3,26.9,0000.0,0022.76,0009.53,0007.85
